Location: Stigler
(35.2540°N, 95.1230°W)
Time: 15:06:01
(UTC-05:00)

Daily predictions for brighter satellites

Satellite Brightness Start Highest point End
(mag) Time Altitude Azimuth Time Altitude Azimuth Time Altitude Azimuth
Chandra Rocket (1) 4.5 20:36:45 10° WSW 20:42:45 59° S 21:07:55 10° ESE
ATLAS CENTAUR Rocket 3.8 20:46:45 10° SW 20:51:49 45° SSE 21:12:50 10° E
Cosmos 494 Rocket 4.0 20:53:05 10° SSW 20:58:11 88° WNW 21:03:20 10° NNE
Atlas Centaur 2 3.1 20:52:42 10° WSW 20:59:16 49° SSE 21:07:06 10° E
USA 186 1.4 20:57:27 10° SSE 21:00:18 66° ENE 21:02:58 10° N
Cosmos 1726 Rocket 3.5 20:57:20 10° N 21:01:48 76° E 21:06:10 10° S
Cosmos 1743 2.8 21:02:28 10° N 21:06:20 81° W 21:10:07 10° S
OAO 3 Copernicus 4.4 21:04:23 10° W 21:09:24 68° SSW 21:14:16 11° ESE
Cosmos 1603 3.7 21:11:59 10° S 21:17:31 64° ESE 21:23:03 10° NNE
Tsikada Rocket 4.4 21:12:05 10° SSE 21:18:06 45° E 21:24:07 10° NNE
Cosmos 1939 Rocket 3.8 21:15:40 12° SE 21:19:04 32° ENE 21:22:46 10° N
Cosmos 1602 Rocket 3.9 21:15:01 10° SSE 21:19:18 48° E 21:23:37 10° NNE
Meteor 1-23 Rocket 4.4 21:14:33 10° SSW 21:20:11 78° W 21:25:55 10° N
Cosmos 2058 Rocket 3.1 21:16:32 10° N 21:20:55 85° W 21:25:15 10° S
SeaSat 1 3.9 21:21:31 11° ESE 21:25:05 24° NE 21:28:58 10° N
Meteor 2-9 Rocket 4.3 21:19:23 10° N 21:25:08 76° E 21:30:57 10° SSE
FENGYUN 3A 4.1 21:23:30 10° S 21:28:48 63° WSW 21:34:09 10° NNW
SJ-11-01 4.3 21:24:52 10° SSE 21:29:29 69° ENE 21:34:09 10° N
YAOGAN 11 4.4 21:26:48 10° S 21:31:08 66° WSW 21:35:26 10° NNW
Aureole 2 Rocket 4.0 21:27:24 10° SW 21:31:09 41° WNW 21:34:37 10° N
Cosmos 2285 Rocket 4.2 21:25:34 10° NNW 21:31:54 76° WSW 21:38:14 10° S
COSMOS 2455 2.8 21:26:09 10° SSW 21:32:03 64° ESE 21:38:01 10° NNE
Cosmos 1812 Rocket 4.3 21:29:18 10° NNE 21:33:20 35° E 21:35:58 19° SE
GEOS 3 Rocket 3.7 21:31:15 14° SSE 21:35:53 86° SW 21:41:09 10° NW
Cosmos 1464 Rocket 4.1 21:32:05 10° N 21:38:14 80° W 21:44:24 10° S
CZ-4B R/B 4.3 21:33:48 10° NE 21:38:18 31° E 21:41:24 17° SSE
deb Chang Zheng 4 3.8 21:35:01 10° N 21:39:24 76° WNW 21:43:44 10° SSW
Cosmos 1943 3.7 21:34:51 10° S 21:40:01 38° ESE 21:45:13 10° NE
H-2A R/B 4.3 21:37:51 10° SSW 21:41:28 35° W 21:45:08 10° NNW
Cosmos 1346 Rocket 4.5 21:41:40 16° E 21:41:47 16° E 21:44:13 10° NE
Cosmos 1302 Rocket 4.1 21:37:07 10° NNW 21:42:22 78° WSW 21:47:03 13° S
H-2A R/B 2.0 21:39:26 13° SSE 21:43:08 89° W 21:47:30 10° NNW
Delta 168 4.2 21:40:49 10° SW 21:43:26 19° S 21:44:00 19° SSE
ATLAS 3B R/B 3.1 21:42:42 10° S 21:50:02 49° ESE 21:57:17 10° NE
Cosmos 1626 Rocket 3.8 21:47:02 10° SSW 21:51:27 70° W 21:55:52 10° N
GRACE-1 3.8 21:49:55 10° N 21:52:47 79° E 21:53:54 34° S
Abrixas rocket 3.0 21:49:31 10° WNW 21:52:47 44° SW 21:54:07 28° SSE
GRACE-2 3.8 21:50:22 10° N 21:53:14 79° E 21:54:18 34° S
ISS -1.6 21:53:18 10° WSW 21:56:20 35° NW 21:59:23 10° NNE
Cosmos 2228 4.0 21:53:51 10° NNW 21:58:05 47° W 22:02:18 10° SSW
Cosmos 2034 Rocket 4.2 21:51:52 10° N 21:58:14 75° W 22:04:24 10° S
ERS-1 Rocket 3.8 21:57:16 10° S 22:02:05 48° W 22:06:57 10° NNW
Meteor 2-12 Rocket 4.5 21:56:53 10° N 22:02:55 63° E 22:06:34 24° SSE
CZ-2C R/B 3.5 22:06:03 10° SW 22:07:09 12° W 22:08:14 10° WNW
Lacrosse 4 Rocket 1.6 22:06:24 37° SSE 22:07:20 44° ESE 22:11:14 10° NE
USA 234 4.2 22:03:51 16° E 22:08:35 39° NE 22:14:34 10° NNW
Cosmos 1953 Rocket 4.1 22:09:37 35° ESE 22:10:28 39° E 22:14:36 10° NNE
CZ-4 R/B 4.3 22:06:04 10° NNE 22:10:50 43° E 22:12:24 33° SE
Envisat 3.0 22:08:34 22° S 22:11:50 78° WSW 22:16:56 10° NNW
UNK 4.2 22:07:30 10° NNE 22:13:01 86° ESE 22:18:50 10° SSW
Cosmos 407 Rocket 3.7 22:13:07 30° SSE 22:15:24 49° ESE 22:20:27 10° NNE
SPOT 5 2.6 22:13:36 30° S 22:15:45 81° WSW 22:20:05 10° NNW
ARGOS 3.8 22:14:27 30° ESE 22:16:23 41° ENE 22:21:28 10° N
CZ-4 SHROUD 3.7 22:16:41 41° SSW 22:17:28 55° W 22:20:35 10° NNW
Cosmos 2346 Rocket 4.4 22:15:45 23° S 22:19:47 70° E 22:25:53 10° NNE
Cosmos 2369 Rocket 2.4 22:21:18 10° NNW 22:26:52 55° ENE 22:28:41 38° ESE
Terra 3.3 22:27:07 21° ENE 22:27:38 21° ENE 22:31:08 10° NNE
MetOp-B 4.1 22:27:20 33° S 22:29:49 83° WSW 22:35:12 10° NNW
USA 238 DEB 4.2 22:28:44 34° SE 22:30:05 37° ESE 22:36:27 10° NE
USA 238 4.2 22:28:57 34° SE 22:30:11 36° ESE 22:36:31 10° NE
Cosmos 1954 Rocket 4.4 22:35:10 42° ESE 22:35:25 42° ESE 22:40:25 10° NNE
NOAA 11 4.3 22:35:09 44° SE 22:36:37 59° ENE 22:41:56 10° N
CZ-4C R/B 3.8 22:43:44 51° ENE 22:43:44 51° ENE 22:47:40 10° N
Cosmos 1758 Rocket 3.4 22:43:56 70° SSE 22:44:23 81° E 22:48:45 10° N
USA 81 4.1 22:40:56 10° N 22:46:13 73° W 22:48:04 41° SSW
Atlas Centaur 2 3.0 22:41:13 10° W 22:48:47 63° S 22:52:20 36° ESE
DELTA 2 DEB (DPAF) 4.2 22:49:43 62° E 22:49:53 62° ENE 22:54:20 10° N
Cosmos 1992 Rocket 4.3 22:46:29 10° NNW 22:51:37 59° WSW 22:53:01 44° SSW
YAOGAN 6 3.2 22:51:40 49° WSW 22:51:46 49° W 22:55:25 10° NNW
Cosmos 2263 4.2 22:49:50 10° NNW 22:55:27 69° ENE 22:56:24 57° ESE
COSMOS 2406 3.7 22:57:41 41° E 22:57:41 41° E 23:02:23 10° NE
SeaSat 1 3.3 23:01:18 36° SW 23:02:21 40° WSW 23:07:00 10° NW
Cosmos 1953 3.7 23:00:42 10° NNE 23:03:10 29° NE 23:03:10 29° NE
Milstar 3 Cent rocket 4.4 23:04:28 10° SW 23:04:50 10° SW 23:04:50 10° SW
Meteor 1-22 Rocket 4.4 23:00:07 10° NNW 23:05:44 71° W 23:07:10 51° SSW
H-2A R/B 2.1 23:07:09 59° ENE 23:07:11 59° ENE 23:12:08 10° N
Geosat 4.0 23:02:41 10° NNE 23:07:43 79° WNW 23:08:59 51° SW
SPOT 1/Viking Rocket 4.5 23:14:57 35° SW 23:16:08 39° W 23:20:58 10° NNW
Kosmos-1675 4.2 23:16:42 46° WNW 23:17:02 48° NW 23:23:59 10° NNE
Cosmos 1092 Rocket 4.4 23:22:26 47° E 23:22:26 47° E 23:28:20 10° NNE
Cosmos 1943 Rocket 2.1 23:22:08 10° NNW 23:27:40 69° ENE 23:27:40 69° ENE
Cosmos 1140 Rocket 3.5 23:28:27 77° NNE 23:28:27 77° NNE 23:33:20 10° NNE
Nadezhda 4 Rocket 3.8 23:32:15 75° SSE 23:32:45 81° E 23:39:07 10° N
IGS 5A 4.4 23:34:47 46° NNW 23:34:47 46° NNW 23:37:45 10° NNW
DMSP B5D2-2 4.3 23:34:25 10° N 23:39:39 65° WNW 23:39:53 65° W
Cosmos 1656 Rocket 4.4 23:35:14 10° N 23:40:27 41° ENE 23:40:27 41° ENE
ATLAS 3B R/B 4.3 23:33:59 10° WSW 23:40:57 36° NW 23:47:48 10° NNE
Lacrosse 4 Rocket 4.3 23:44:12 10° W 23:46:18 14° NW 23:48:25 10° NNW
NOSS 3-2 (A) 4.3 23:50:04 38° ENE 23:50:04 38° ENE 23:54:23 10° NE
USA 234 3.4 23:51:11 57° SW 23:51:21 57° SW 23:57:48 10° NW
